Retour au catalogue

SITRO-AIS-24

ActifCommunicationsSSO
NORAD 61741·PAYLOAD·🇷🇺 Russia
Ce nom de satellite n'a pas encore été confirmé par des sources officielles.

Lancé Nov 4, 2024 depuis Vostochny Cosmodrome

Loading…

Prochains Passages (prochaines 24 heures)

TLE

FraisSource: Space-Track

Époque: Sep 14, 2026, 19:56 UTC

1 61741U 24199G   26257.83059731  .00002313  00000-0  20790-3 0  9992
2 61741  97.3224  90.1479 0013815 116.6745 243.5894 14.96505085145295

Suivez SITRO-AIS-24 en temps réel avec AllMySat

Download on the App Store